Flag for Germany Weather past 2 weeks in Dortmund, North Rhine-Westphalia, Germany

Now
53 °F

Fog.


Feels Like: 53 °F
Forecast: 55 / 69 °F
Wind: 1 mph from North

Location: Duesseldorf

Current Time: Sep 2, 2014 at 3:15:50 AM

Latest Report: Sep 2, 2014 at 3:00 AM


Visibility: 13 mi

Pressure: 30.16 "Hg

Humidity: 96%

Dew point: 51 °F

Location of DortmundLocation

Historic Weather in Dortmund — Graph

°F

Dortmund temperature yesterday

Maximum temperature yesterday: 66 °F (at 6:00 PM)
Minimum temperature yesterday: 46 °F (at 3:00 AM)
Average temperature yesterday: 57 °F

Past Weeks' High & Low Weather Summary

 TemperatureHumidityPressure
High72 °F (Aug 28, 3:00 PM)97% (Sep 1, 9:00 AM)30.17 "Hg (Sep 1, 9:00 AM)
Low45 °F (Aug 21, 6:00 AM)42% (Aug 27, 6:00 PM)29.63 "Hg (Aug 26, 6:00 AM)
Average58 °F79%29.95 "Hg
* Reported Aug 18 2:00 AM — Sep 2 2:00 AM, Dortmund, Weather by CustomWeather, © 2014

Note: Actual official high and low records may vary slightly from our data, if they occured in-between our weather recording intervals... More about our weather records

Advertising

Dortmund weather history for previous 24 hours

 ConditionsComfort  
Time TempWeatherWind HumidityBarometerVisibility
2:00 AM
Sep 2
53 °FFog.2 mph96%30.16 "Hg11 mi
1:00 AM55 °FFog.1 mph94%30.16 "Hg12 mi
12:00 AM56 °FPassing clouds.2 mph94%30.15 "Hg16 mi
10:00 PM
Sep 1
58 °FOvercast.1 mph90%30.15 "Hg19 mi
9:00 PM59 °FPassing clouds.1 mph88%30.14 "Hg12 mi
8:00 PM63 °FPartly sunny.1 mph74%30.13 "Hg12 mi
7:00 PM66 °FPartly sunny.1 mph67%30.13 "Hg12 mi
6:00 PM66 °FPartly sunny.2 mph65%30.14 "Hg12 mi
4:00 PM65 °FPartly sunny.2 mph67%30.14 "Hg12 mi
3:00 PM64 °FPartly sunny.1 mph66%30.14 "Hg9 mi
2:00 PM64 °FPartly sunny.2 mph70%30.15 "Hg9 mi
1:00 PM62 °FPartly sunny.1 mph84%30.16 "Hg9 mi
12:00 PM57 °FLow clouds.2 mph94%30.17 "Hg6 mi
11:00 AM56 °FFog.2 mph97%30.16 "Hg3 mi
10:00 AM54 °FFog.2 mph97%30.15 "Hg1 mi
9:00 AM53 °FFog.2 mph97%30.14 "Hg1 mi
8:00 AM53 °FFog.2 mph96%30.13 "Hg0 mi
7:00 AM53 °FFog.2 mph96%30.12 "Hg1 mi
6:00 AM53 °FFog.2 mph96%30.12 "Hg1 mi
4:00 AM47 °FFog.1 mph96%30.10 "Hg0 mi
3:00 AM46 °FFog.1 mph95%30.09 "Hg1 mi
Weather by CustomWeather, © 2014

See weather overviewHow to use our weather pages